Regional Weather Roundup
Issued by NWS

Home | Current Version | Previous Version | Graphics & Text | Print | Product List | Glossary On
Versions: 1 2 3 4 5 6 7 8 9 10 11 12 13 14 15 16 17 18 19 20 21 22 23 24 25 26 27
000
ASUS45 KCYS 231010
RWRWY

WYOMING REGIONAL WEATHER ROUNDUP
NATIONAL WEATHER SERVICE CHEYENNE WY
300 AM MST FRI FEB 23 2018

NOTE:  "FAIR" INDICATES FEW OR NO CLOUDS BELOW 12,000 FEET
WITH NO SIGNIFICANT WEATHER AND/OR OBSTRUCTIONS TO VISIBILITY.

WYZ001-231100-
YELLOWSTONE NATIONAL PARK

CITY           SKY/WX    TMP DP  RH WIND       PRES   REMARKS
LK YELLOWSTONE   N/A     -6 -10  83 CALM      29.89F
W YELLOWSTONE  NOT AVBL

$$
WYZ002>013-054>058-071-098>099-231100-
NORTHERN WYOMING

CITY           SKY/WX    TMP DP  RH WIND       PRES   REMARKS
JACKSON        FLURRIES   6   3  87 N7        29.93S WCI  -6
CODY           FAIR      -4  -8  83 S6        30.03F WCI -16
GREYBULL       FAIR     -11 -13  91 CALM      30.12F
WORLAND        FAIR      -9 -13  83 S6        30.10S WCI -22
SHERIDAN       FAIR      -7 -12  79 CALM      30.08F
BUFFALO        FAIR       8  -5  55 S5        30.03F WCI   0
GILLETTE       FAIR      -7 -11  83 S6        30.08S WCI -20
HULETT         FAIR      -2  -8  78 MISG      30.08S
NEWCASTLE      FAIR      -4  -9  77 N6        30.09S WCI -16

$$
WYZ014>020-022>026-101>103-231100-
CENTRAL WYOMING

CITY           SKY/WX    TMP DP  RH WIND       PRES   REMARKS
BIG PINEY      MOCLDY     0  -4  83 N5        29.91F WCI -10
PINEDALE       FAIR      -6  -9  84 NW8       29.92S WCI -21
DUBOIS           N/A    N/A N/A N/A MISG        N/A
LANDER         FAIR       0  -4  83 W7        29.98F WCI -13
RIVERTON       FAIR      -2  -8  76 W3        29.99F
CASPER         FAIR     -12 -14  90 CALM      30.02F
DOUGLAS        FAIR      -7 -12  79 N8        30.06F WCI -23

$$
WYZ021-027>030-104>119-231100-
SOUTHERN WYOMING

CITY           SKY/WX    TMP DP  RH WIND       PRES   REMARKS
EVANSTON       LGT SNOW   8   6  92 E13       29.85F FOG     WCI  -8
ROCK SPRINGS   FAIR       5   1  83 NE3       29.90F FOG
DIXON          CLOUDY    18  14  85 NE3       29.96F
RAWLINS        CLOUDY    10   7  87 CALM      29.93F
SARATOGA       FAIR      10   5  79 CALM      29.93S
LARAMIE        FAIR       5   2  87 S7        29.92S WCI  -7
CHEYENNE       CLOUDY    15  11  83 W7        29.98F WCI   5
TORRINGTON     FAIR      11   6  81 NW10      30.06F WCI  -3
PINE BLUFFS    CLOUDY    10   7  85 CALM      30.05S

$$




USA.gov is the U.S. government's official web portal to all federal, state and local government web resources and services.